Retour au catalogue

COSMOS 2575

ActifMilitaireSSO
NORAD 58929·PAYLOAD·🇷🇺 Russia

Lancé Feb 9, 2024 depuis Plesetsk Cosmodrome

Loading…

Prochains Passages (prochaines 24 heures)

TLE

FraisSource: Space-Track

Époque: Sep 14, 2026, 15:00 UTC

1 58929U 24026A   26257.62559328  .00021353  00000-0  14239-3 0  9995
2 58929  96.6003 137.4235 0002616  97.1369 263.0196 15.75377571149711

Suivez COSMOS 2575 en temps réel avec AllMySat

Download on the App Store